Location: Chinna Viriv?da
(16.5281°N, 81.0493°E)
Time: 15:21:32
(UTC+00:00)

Palapa B4 Rocket - Pass Details

Date: 14 April 2026
Orbit: 502 x 2662 km, 19.7° (Epoch: 11 May)

Event Time Altitude Azimuth Distance (km) Brightness Sun altitude
Rises 14:20:07 0° 239° (WSW) 2,839 7.1 -21.6°
Reaches altitude 10° 14:22:42 10° 231° (SW) 1,794 5.8 -22.1°
Enters shadow 14:25:08 28° 201° (SSW) 967 4.0 -22.7°
